Location: Kergonan
(48.2337°N, 4.5518°W)
Time: 23:49:10
(UTC+00:00)

CENTAUR R/B - Pass Details

Date: 18 January 2020
Orbit: 766 x 1422 km, 63.5° (Epoch: 19 February)

Event Time Altitude Azimuth Distance (km) Brightness Sun altitude
Exits shadow 06:03:32 16° 324° (NW) 2,753 4.4 -19.3°
Maximum altitude 06:10:01 65° 43° (NE) 1,457 3.5 -18.2°
Drops below altitude 10° 06:18:38 10° 125° (SE) 3,499 6.5 -16.8°
Sets 06:21:41 0° 128° (SE) 4,489 7.2 -16.3°
